SHASTA DAM (USBR) (SHA)

Elevation: 1067' · SACRAMENTO R basin · Operator: US Bureau of Reclamation

Provisional data, subject to change.
Query executed Saturday at 2:48:29   clock

Select a sensor type for a plot of data.
Note: Reservoir Flows are daily averages.

Earlier

Date RES ELE    STORAGE    RES CHG    TOC STO    ABV TOC    OUTFLOW    INFLOW    EVAP    FNF    RIV REL    PPT INC    RAIN    SPILL    DIS PWR   
 FEET   AF   AF   AF   AF   CFS   CFS   CFS   CFS   CFS   INCHES   INCHES   CFS   CFS  
08/22/2014 919.08 1412170 -6579 4552100 -3139930 5415 2238 140 2301 0 0.00 31.00 0 5415
08/23/2014 918.64 1406173 -5997 4552100 -3145927 5097 2234 160 2308 0 0.00 31.00 0 5097
08/24/2014 918.06 1398278 -7895 4552100 -3153822 6171 2338 147 2415 0 0.00 31.00 0 6171
08/25/2014 917.57 1391647 -6631 4552100 -3160453 5669 2481 155 2482 0 0.00 31.00 0 5669
08/26/2014 917.08 1385022 -6625 4552100 -3167078 6452 3247 135 2607 0 0.00 31.00 0 6452
08/27/2014 916.66 1379374 -5648 4552100 -3172726 6414 3709 142 3058 0 0.00 31.00 0 6414
08/28/2014 915.94 1369711 -9663 4552100 -3182389 7041 2267 98 2188 0 0.00 31.00 0 7041
08/29/2014 915.22 1360108 -9603 4552100 -3191992 6297 1593 137 2273 0 0.00 31.00 0 6297
08/30/2014 914.55 1351214 -8894 4552100 -3200886 6530 2213 167 2036 0 0.00 31.00 0 6530
08/31/2014 913.86 1342087 -9127 4552100 -3210013 6781 2316 136 2333 0 0.00 31.00 0 6781
09/01/2014 913.32 1334984 -7103 4552100 -3217116 6480 3015 116 2270 0 0.00 31.00 0 6480
09/02/2014 912.62 1325810 -9174 4552100 -3226290 7122 2605 108 2166 e 0 0.00 31.00 0 7122
09/03/2014 911.92 1316673 -9137 4552100 -3235427 6416 1928 119 2166 e 0 0.00 31.00 0 6416
09/04/2014 911.30 1308629 -8044 4552100 -3243471 6281 2356 130 2186 0 0.00 31.00 0 6281
09/05/2014 910.70 1300872 -7757 4552100 -3251228 6139 2361 133 1971 0 0.00 31.00 0 6139
09/06/2014 910.08 1292885 -7987 4552100 -3259215 6146 2255 136 2214 0 0.00 31.00 0 6146
09/07/2014 909.50 1285457 -7428 4552100 -3266643 5724 2114 135 2113 0 0.00 31.00 0 5724
09/08/2014 908.82 1276773 -8684 4552100 -3275327 5672 1414 120 2260 0 0.00 31.00 0 5672
09/09/2014 908.24 1269405 -7368 4552100 -3282695 5514 1922 123 2182 1434 0.00 31.00 0 4080
09/10/2014 907.71 1262697 -6708 4552100 -3289403 6177 2899 104 2275 1480 0.00 31.00 0 4697
09/11/2014 907.21 1256389 -6308 4552100 -3295711 5575 2506 111 2258 1458 0.00 31.00 0 4117
09/12/2014 906.81 1251359 -5030 4552100 -3300741 5868 3443 111 2403 2184 0.00 31.00 0 3684
09/13/2014 906.37 1245848 -5511 4552100 -3306252 5763 3096 111 2412 2185 0.00 31.00 0 3578
09/14/2014 906.02 1241464 -4384 4552100 -- 5100 3000 110 2320 2191 0.00 31.00 0 2909
09/15/2014 905.25 1231883 -9581 4552100 -3320217 5616 907 121 2400 e 2188 0.00 31.00 0 3428
09/16/2014 904.87 1227167 -4716 4552100 -3324933 5343 3085 120 2414 2186 0.00 31.00 0 3157
09/17/2014 904.45 1221980 -5187 4552100 -3330120 5070 2546 91 1616 2057 0.00 31.00 0 3013
09/18/2014 903.94 1215686 -6294 4552100 -3336414 5557 2478 94 2413 2180 0.00 31.00 0 3377
09/19/2014 -- -- -- -- -- -- -- -- -- -- -- -- -- --
09/20/2014 -- -- -- -- -- -- -- -- -- -- -- -- -- --

Later | Latest

Warning! This data is preliminary and subject to revision.

Download Data Now Download Data Now | Show SHA Map | Plot SHA Data | 1 Month SHA Data | Real-Time SHA Data | SHA Info